Regional Weather Roundup
Issued by NWS Albany, NY

Home | Current Version | Previous Version | Text Only | Print | Product List | Glossary On
Versions: 1 2 3 4 5 6 7 8 9 10 11 12 13 14 15 16 17 18 19 20 21 22 23 24 25 26 27 28 29 30 31 32 33 34 35 36 37 38 39 40 41 42 43 44 45 46 47 48 49 50
000
ASUS41 KALY 011310
RWRALY

NEW YORK STATE HOURLY WEATHER ROUNDUP
NATIONAL WEATHER SERVICE ALBANY NY
900 AM EDT SUN MAY 01 2016

NOTE: "FAIR" INDICATES FEW OR NO CLOUDS BELOW 12,000 FEET WITH NO
SIGNIFICANT WEATHER AND/OR NO OBSTRUCTIONS TO VISIBILITY.

NYZ032-033-038>043-046>054-057>066-NYZ062>081-082-084-011400-
EAST


CITY           SKY/WX    TMP DP  RH WIND       PRES   REMARKS
ALBANY         LGT RAIN  50  37  61 S6        30.18F
GLENS FALLS    LGT RAIN  46  37  71 CALM      30.19S
POUGHKEEPSIE   LGT RAIN  48  42  80 SE6       30.20F
NEWBURGH       LGT RAIN  46  43  87 SE12      30.19F
MONTGOMERY     LGT RAIN  46  42  86 CALM      30.21R FOG
WHITE PLAINS   LGT RAIN  46  41  82 SE3       30.22R
ISLIP          LGT RAIN  48  42  80 SE9       30.23S
NEW YORK CITY  LGT RAIN  50  42  74 SE6       30.24R
CENTRAL PARK   LGT RAIN  48  41  76 CALM      30.26R
$$

NYZ005>009-017-018-044>046-055-056-011400-
CENTRAL


CITY           SKY/WX    TMP DP  RH WIND       PRES   REMARKS
FULTON         RAIN      51  48  89 SE7       30.04F FOG
SYRACUSE       LGT RAIN  47  46  97 SE13      30.06S
ROME           LGT RAIN  46  44  93 E12       30.13S
ELMIRA         LGT RAIN  45  41  86 SE9       30.02S FOG
BINGHAMTON     LGT RAIN  39  38  96 SE16      30.05F WCI  30
MONTICELLO     CLOUDY    37  36  93 SE10      30.18R WCI  30
$$

NYZ026>034-041>043-087-011400-
NORTH


CITY           SKY/WX    TMP DP  RH WIND       PRES   REMARKS
WATERTOWN      LGT RAIN  50  48  93 E7        30.08F FOG
FORT DRUM      NOT AVBL
MASSENA        CLOUDY    47  25  42 NE6       30.16S
SARANAC LAKE   LGT RAIN  41  35  79 CALM      30.12F
PLATTSBURGH    CLOUDY    47  24  40 VRB3      30.17R
$$

NYZ001>004-010>016-019>021-085-011400-
WEST


CITY           SKY/WX    TMP DP  RH WIND       PRES   REMARKS
NIAGARA FALLS  LGT RAIN  51  47  86 E7        29.95R FOG
BUFFALO        LGT RAIN  50  47  89 E7        29.94R FOG
DUNKIRK        CLOUDY    51  49  92 N3        29.91S
JAMESTOWN      CLOUDY    48  46  93 S5        29.92R VSB 1/4
WELLSVILLE     LGT RAIN  49  46  90 S7        29.95S FOG
ROCHESTER      LGT RAIN  50  48  93 SE12      29.98F
PENN YAN       LGT RAIN  48  44  86 SE14      30.00F FOG
$$

             KEY
       WCI = WIND CHILL INDEX
       VSB = VISIBILITY
       HX  = HEAT INDEX
$$



USA.gov is the U.S. government's official web portal to all federal, state and local government web resources and services.